Theta_e
310 311 311 311 313 314 316 316 315 314 313 313 312 312 312 312 313 313 313 311 311 314 314 314 313 312 315 311 316 333 339 337 340 339 339 339 339 339 338 338 339 338 339 339 341 342 340 338 334 333 336 331 326 327 326 325 326 325 324 327 330 330 329 326 321 319 319 318 318 318 317 317 316 316 317 316 314 314 315 320 325 327 327 327 326 326
310 310 313 315 317 319 319 317 317 316 314 313 312 312 312 312 314 314 313 311 311 314 315 312 312 311 313 312 314 329 339 337 340 341 339 340 338 338 338 337 338 338 338 339 341 341 340 340 337 334 336 333 326 326 326 325 327 327 328 329 329 327 325 321 317 316 317 317 317 316 316 315 315 315 315 312 309 308 311 317 322 324 325 326 325 324
311 311 314 316 315 317 317 315 316 316 315 314 312 313 314 312 313 314 313 311 311 313 314 312 312 312 313 313 313 326 339 337 338 341 339 340 338 338 338 337 338 337 337 339 340 341 341 340 339 335 337 335 328 327 327 326 326 327 330 330 325 324 322 318 317 318 317 317 317 316 316 315 316 316 315 313 311 308 310 315 319 321 323 324 325 325
311 313 313 313 313 316 317 314 315 316 315 315 313 312 314 312 311 313 314 314 313 313 313 312 313 313 314 315 313 319 330 331 333 337 337 339 339 338 337 337 338 337 337 339 340 341 341 341 339 335 336 334 328 327 327 326 324 326 329 327 322 322 320 317 319 320 317 316 316 317 317 317 318 318 317 316 312 309 311 316 319 321 322 323 325 326
311 311 309 310 312 315 317 316 315 314 313 315 316 313 313 313 312 313 314 315 315 314 314 313 313 314 315 316 314 315 322 326 330 335 336 337 338 338 337 336 337 337 338 339 340 341 340 340 337 334 336 335 328 326 327 327 325 327 328 323 320 321 320 318 319 319 316 315 316 316 317 318 318 317 317 316 313 310 312 316 320 322 323 324 324 325
311 309 308 312 313 312 316 316 314 314 313 315 316 315 314 314 315 314 315 315 316 315 315 314 312 314 315 316 315 314 319 325 328 332 336 337 337 337 337 337 337 337 338 339 340 340 340 339 335 333 337 337 332 328 329 328 328 330 328 321 321 322 319 317 317 316 314 315 316 316 316 316 316 315 316 315 312 309 310 312 315 318 319 320 321 321
311 308 309 314 315 312 313 313 314 315 313 313 317 318 314 313 315 316 317 315 314 314 315 314 313 314 315 316 315 313 317 322 325 329 334 336 337 337 337 338 337 338 338 339 339 340 340 339 336 334 337 338 336 332 332 332 331 332 330 325 324 321 317 316 316 315 315 315 317 316 315 314 314 315 315 313 309 307 308 308 309 310 311 312 312 312
312 310 310 314 315 312 311 312 315 314 312 315 318 316 312 312 315 317 317 315 315 316 316 315 314 314 315 315 315 313 316 320 321 325 330 333 335 336 337 337 337 338 338 338 339 339 340 339 337 336 337 338 338 335 334 333 332 332 331 330 327 320 316 316 315 315 315 316 316 316 314 314 314 314 314 313 309 307 307 307 307 307 307 307 307 307
313 315 313 315 315 312 312 314 314 313 313 315 314 312 311 312 315 317 316 315 316 316 315 316 315 314 315 315 315 314 317 320 320 322 325 330 334 334 336 336 336 338 338 338 339 338 339 339 338 338 337 338 339 338 336 334 333 333 332 332 330 323 318 317 316 315 315 316 316 315 315 314 314 313 312 312 310 307 307 307 307 307 306 306 307 307
313 312 312 313 313 313 314 314 312 313 314 313 310 310 311 312 314 316 315 315 317 315 314 316 316 314 314 316 315 315 317 318 319 320 320 324 330 332 333 334 335 337 337 337 338 337 338 338 338 338 337 337 335 333 332 332 332 333 334 334 332 327 323 321 319 315 315 317 316 315 315 314 314 313 312 313 311 308 307 307 307 307 306 305 306 307
311 310 311 312 312 312 313 310 308 311 311 310 311 312 312 313 316 317 316 316 316 314 314 314 315 315 313 315 316 315 316 316 316 318 317 318 323 329 331 333 334 335 336 336 336 336 336 336 337 337 336 336 333 330 329 329 327 327 329 331 331 330 327 323 318 314 314 317 316 315 314 314 314 313 313 313 311 308 307 307 307 306 306 305 305 306
311 310 311 312 311 310 310 308 307 308 308 310 313 314 313 314 316 315 315 315 314 314 314 313 314 316 314 314 315 316 315 313 313 315 316 315 317 321 326 330 332 333 334 335 334 334 334 335 335 335 335 336 335 333 331 330 327 325 324 324 325 327 327 323 316 313 316 317 317 316 314 314 315 313 312 311 310 308 307 308 307 306 305 305 304 306
313 312 311 311 311 310 311 310 308 308 309 311 314 314 313 313 314 314 314 314 314 315 314 313 313 314 314 314 315 315 315 314 314 315 316 316 316 316 318 324 329 331 332 333 333 333 333 333 333 333 333 333 335 335 332 329 328 328 328 326 324 323 323 322 317 313 316 317 317 317 315 316 317 317 315 312 309 307 308 308 306 305 305 304 305 307
314 314 312 311 311 311 312 312 311 311 311 312 313 314 314 313 313 313 313 313 314 315 314 312 313 314 314 315 314 314 315 316 317 317 318 318 318 317 314 317 324 328 330 331 331 331 330 330 330 329 329 329 330 331 331 330 329 328 328 328 327 324 322 322 320 318 318 319 319 319 318 319 320 320 318 314 309 307 308 307 305 304 304 304 306 308
314 313 313 313 312 311 312 312 313 313 312 311 311 312 313 313 313 313 313 314 314 315 314 312 313 315 315 314 313 313 315 317 320 320 320 320 319 317 314 315 322 326 327 329 329 329 328 328 327 327 327 328 327 326 327 329 329 327 326 325 326 325 324 322 321 321 319 319 319 319 320 320 320 320 318 312 309 308 308 307 304 304 305 305 306 307
311 312 314 312 309 309 311 311 311 311 311 309 309 311 313 314 315 313 312 314 314 315 315 313 313 314 314 312 311 314 317 319 320 321 322 322 320 319 318 320 323 324 325 327 327 328 327 326 325 327 328 329 327 326 326 328 327 326 325 325 326 326 325 323 322 321 319 318 318 318 318 319 321 320 316 312 310 309 308 307 305 304 305 305 305 306
311 314 314 310 308 309 309 309 309 310 312 310 309 312 311 311 316 316 311 310 313 315 315 312 313 313 313 312 311 314 317 316 316 318 321 323 322 322 322 322 323 324 325 326 327 327 327 326 326 325 324 323 322 323 324 326 327 325 324 324 325 325 325 323 322 322 320 319 320 317 316 320 321 319 315 314 312 309 308 307 305 304 304 305 305 305
312 315 315 310 310 309 306 307 308 307 309 311 311 312 310 309 314 315 313 311 312 315 314 311 312 314 314 314 313 313 315 314 313 314 319 323 322 322 322 323 324 324 325 326 326 326 327 327 325 321 319 319 320 320 320 323 324 325 325 325 325 325 324 324 323 322 321 320 320 319 318 320 321 317 313 315 314 310 309 308 305 304 305 305 305 305
312 314 315 311 310 309 307 309 309 307 307 309 310 310 310 312 313 313 313 313 313 313 312 311 311 312 313 314 314 314 314 314 313 312 316 320 321 321 322 322 323 323 323 324 324 323 325 325 322 318 318 320 321 320 319 321 323 324 325 326 325 325 325 325 326 325 322 321 321 320 319 319 320 317 312 312 313 313 312 309 307 305 304 305 305 305
313 315 315 311 308 309 309 310 311 310 307 308 309 308 309 312 313 312 313 314 314 312 311 312 313 312 313 312 311 313 313 312 313 312 314 318 321 320 320 321 322 322 322 322 322 321 321 322 321 319 320 322 323 322 322 323 323 323 325 324 324 325 326 327 328 327 326 324 322 322 321 320 320 318 314 312 313 315 314 310 308 307 304 305 305 305
313 312 314 313 309 308 310 310 310 310 310 309 311 311 310 310 310 311 312 310 312 312 311 312 313 313 312 310 310 312 311 310 311 311 313 318 320 319 319 320 321 322 323 323 324 324 323 324 324 323 323 324 325 324 324 324 324 324 324 323 323 325 327 329 329 328 328 327 326 326 325 322 320 319 316 315 315 315 313 312 312 309 306 305 306 306
314 312 315 317 312 309 309 307 306 307 307 309 312 311 311 311 310 312 311 308 309 312 311 312 313 314 311 308 309 309 309 311 311 311 314 318 320 319 319 320 321 322 323 324 326 326 326 326 326 325 325 325 325 325 325 325 325 325 325 324 324 325 327 328 328 328 328 328 327 327 325 323 320 319 318 317 315 313 312 313 315 312 308 306 306 306
315 316 316 314 310 308 308 306 306 305 305 307 310 308 309 313 314 314 313 311 310 310 310 312 313 313 310 308 308 309 310 313 312 313 317 319 318 318 317 318 319 319 320 321 324 325 325 325 324 324 324 323 323 324 324 324 325 325 325 325 325 325 326 327 326 327 327 326 326 325 323 321 319 319 318 317 314 312 311 314 317 315 311 309 307 306
317 319 314 309 308 309 308 308 307 306 306 308 308 307 307 311 314 315 317 316 313 310 310 312 312 313 310 308 309 310 311 313 313 315 318 318 316 315 316 316 316 317 317 318 320 322 323 324 323 324 323 323 323 323 324 324 324 324 325 325 325 325 325 326 326 326 326 326 325 324 322 320 319 319 317 316 315 313 311 313 316 317 315 312 309 307
314 315 313 310 309 309 309 309 308 307 308 309 308 306 306 309 313 315 314 315 314 311 311 312 313 312 309 308 309 310 312 313 313 313 314 315 314 313 313 314 315 315 316 316 317 319 321 322 322 323 323 322 323 323 323 324 324 324 324 324 325 325 325 325 325 325 325 324 324 323 322 321 320 319 317 317 317 316 314 314 315 317 317 315 312 309
313 312 312 311 310 311 310 310 309 309 309 309 306 306 306 309 315 316 312 312 313 310 310 312 313 312 309 308 308 309 310 311 312 312 311 311 311 310 311 312 313 313 313 314 315 315 317 318 319 321 322 322 323 322 323 324 324 324 325 324 324 324 324 324 324 324 324 324 323 323 323 322 321 320 319 318 319 318 317 315 315 316 317 317 316 313
315 310 308 309 310 310 309 307 306 306 309 308 306 307 308 308 312 315 312 311 312 311 310 311 313 312 310 308 308 308 308 309 310 310 310 309 309 309 309 309 310 310 311 312 312 313 313 314 315 317 319 321 322 322 322 323 323 324 324 324 324 324 324 324 324 324 324 324 323 323 323 323 322 322 320 320 320 319 317 315 314 315 316 317 318 316
318 312 309 308 307 305 305 305 305 305 307 308 308 309 310 308 311 316 314 313 313 312 311 312 312 313 310 306 307 307 307 308 308 308 308 307 307 307 307 307 308 308 309 310 310 310 310 310 311 313 315 317 319 320 321 321 322 322 323 323 323 323 323 323 323 323 323 323 323 323 323 323 322 321 321 321 320 320 319 316 314 314 315 316 318 318
318 312 309 309 306 305 305 305 306 306 306 306 306 308 309 309 313 315 312 310 312 313 313 312 310 310 307 305 305 305 306 307 306 306 306 305 305 305 305 306 306 306 307 307 307 308 308 308 308 309 310 311 313 315 317 318 319 320 321 321 321 321 321 321 321 322 322 322 322 322 323 323 322 321 321 321 320 320 320 318 315 315 315 316 317 319
315 311 309 309 309 308 307 306 306 306 307 306 306 306 306 306 308 309 307 306 309 312 311 309 308 307 305 304 304 303 304 305 304 304 303 303 303 303 303 303 303 304 304 305 305 305 306 307 307 307 308 308 309 310 311 312 314 316 318 318 319 320 320 320 321 321 321 321 321 322 322 322 322 322 322 321 321 320 320 318 316 316 316 316 317 318
315 314 311 312 313 311 309 308 308 307 308 308 308 308 309 309 308 307 307 307 308 308 307 308 309 306 303 302 302 302 302 302 302 302 301 301 301 301 301 301 301 301 302 303 304 305 305 306 306 306 307 307 307 308 308 309 309 311 313 315 317 318 318 319 320 320 320 320 320 321 321 320 321 321 321 321 320 320 319 318 316 316 316 316 317 318
314 313 310 313 315 311 309 310 310 309 309 310 311 313 313 313 310 307 306 307 308 308 308 310 311 306 302 301 301 301 301 301 301 301 300 300 300 300 300 299 299 299 300 301 302 303 304 305 305 305 306 306 306 306 307 308 308 309 310 311 313 315 316 317 318 318 318 319 319 320 320 320 320 320 320 320 319 319 319 319 318 317 317 317 317 317
311 310 308 311 313 310 307 309 310 311 312 313 311 309 307 307 307 306 304 304 305 307 309 311 309 304 301 301 300 300 301 301 300 300 300 299 299 298 298 298 298 298 298 299 300 300 301 302 303 303 304 305 305 305 306 306 307 307 308 308 309 310 311 313 314 314 315 316 318 319 319 319 319 319 318 318 318 318 319 319 319 318 318 318 317 316
309 309 309 310 311 309 307 307 308 311 313 311 305 301 302 304 305 306 304 301 302 303 304 305 304 301 301 301 300 300 299 299 299 298 298 298 298 297 297 297 297 297 297 298 298 299 299 300 300 301 303 304 304 304 305 305 306 306 306 306 307 308 308 309 310 311 311 312 314 317 318 318 318 318 318 318 318 318 319 319 319 318 318 317 317 317
309 308 307 306 308 308 306 306 310 311 309 305 301 300 302 303 302 303 302 300 301 301 301 301 301 300 300 299 299 299 298 298 298 297 297 297 297 297 297 297 297 298 298 298 298 299 299 299 299 300 301 302 302 303 304 305 305 305 305 306 306 307 307 307 308 308 309 310 311 313 315 317 317 318 318 318 318 318 318 318 318 318 317 317 317 317
309 307 304 304 305 306 306 307 309 308 303 301 300 301 302 302 302 303 303 301 300 301 301 301 299 299 299 298 298 298 297 297 298 297 297 297 297 297 297 297 297 297 298 298 298 298 299 299 299 299 299 300 300 301 302 303 304 305 305 305 305 306 306 306 306 307 307 308 309 310 311 312 313 314 314 315 317 317 318 318 317 317 316 315 315 316
309 308 306 305 304 304 305 306 304 304 303 302 301 300 301 302 302 303 303 301 299 300 301 300 299 299 299 298 298 297 298 299 299 298 297 297 297 297 297 297 297 297 297 297 297 297 298 298 298 299 299 299 299 299 300 301 302 303 304 305 305 306 306 306 306 306 306 307 307 308 309 309 309 309 310 312 313 314 315 317 318 318 317 316 315 316
305 306 307 307 303 301 304 305 304 305 307 305 302 300 300 300 300 302 303 301 299 300 300 300 300 300 300 299 299 298 299 301 301 298 297 297 297 297 297 297 297 296 297 297 296 296 297 297 297 298 298 298 298 299 300 301 301 302 302 304 304 305 306 306 306 306 306 306 306 307 308 308 308 308 308 309 310 312 314 316 317 317 317 316 315 314
304 304 306 306 302 301 305 306 306 306 305 302 300 300 299 298 298 301 304 303 299 298 299 300 300 300 299 300 299 300 302 303 301 298 297 297 297 297 296 296 296 296 296 296 296 296 296 296 296 296 297 297 298 299 299 300 300 300 300 301 302 303 304 305 306 306 306 306 306 306 306 307 307 307 307 307 309 312 314 315 315 315 315 315 313 313
305 303 304 305 304 302 304 305 303 302 301 299 299 299 299 298 298 302 306 304 299 297 298 299 299 299 298 299 300 301 301 302 300 298 297 297 297 296 296 296 296 296 296 296 296 296 296 296 296 296 296 297 297 297 298 298 298 298 298 299 299 299 300 302 304 305 306 306 306 306 306 306 306 307 307 306 308 311 313 312 312 312 312 313 312 313
303 301 302 303 303 303 305 305 302 300 299 298 299 298 298 298 301 305 305 301 297 297 297 297 298 298 297 298 299 299 298 298 298 297 297 297 297 296 296 296 296 296 296 296 296 295 295 296 296 296 296 296 296 296 296 296 296 296 297 297 297 297 297 298 300 302 304 305 305 305 305 305 305 306 306 306 307 310 311 310 309 309 310 310 311 312
301 301 300 301 301 301 302 303 303 301 298 297 298 298 298 301 304 302 298 296 296 297 297 297 297 297 297 297 298 298 297 297 297 297 297 297 296 296 296 296 296 296 295 295 295 295 295 295 295 295 295 295 295 295 295 295 295 296 296 296 296 296 296 297 297 298 301 303 305 305 305 305 305 305 305 306 307 309 308 308 308 307 307 307 308 309
300 301 301 300 299 299 300 302 304 302 298 296 298 298 299 301 301 298 296 296 297 297 297 297 297 297 297 297 297 297 297 297 297 297 297 296 296 296 296 296 295 295 295 295 295 295 295 295 295 295 295 295 295 295 295 295 295 295 295 296 296 296 296 296 296 296 297 300 302 304 305 305 305 305 305 305 306 307 307 306 306 306 305 305 305 306
300 301 301 300 299 300 302 301 301 299 297 296 298 299 299 298 297 296 297 298 297 297 297 297 297 297 297 297 297 297 297 296 296 296 296 296 296 296 296 296 295 295 295 295 295 295 295 295 295 295 295 295 295 295 295 295 295 295 295 295 295 295 296 296 296 296 296 297 298 300 303 304 304 304 305 305 305 306 306 306 305 305 305 304 304 304
300 300 300 299 298 299 300 299 297 297 297 297 298 297 297 297 297 297 298 297 297 297 297 297 297 297 297 297 297 297 296 296 296 296 296 296 296 295 296 295 295 295 294 294 294 294 294 295 295 295 295 295 295 295 295 295 295 295 295 295 295 295 295 295 295 295 296 296 296 297 299 301 302 303 304 304 304 305 306 306 305 305 305 304 304 303
298 298 299 299 298 297 298 298 298 298 298 298 297 297 297 297 297 297 297 297 297 297 297 297 297 297 297 297 296 296 296 296 296 296 296 296 295 295 295 295 294 294 294 294 294 294 294 294 294 294 294 294 294 295 294 294 294 294 295 295 295 295 295 295 295 295 295 295 296 296 297 298 300 302 303 304 303 303 304 305 305 306 306 305 305 305
297 297 298 299 298 297 298 298 298 298 298 298 298 298 298 297 297 297 297 297 297 296 296 296 297 296 296 296 296 296 296 296 296 296 296 295 295 295 294 293 293 293 293 293 294 294 294 294 294 294 295 295 295 295 295 295 295 294 294 294 294 295 295 295 295 295 295 295 295 295 296 296 297 299 301 302 302 302 303 303 304 305 305 306 306 306
297 298 298 298 297 297 298 298 298 297 297 297 298 298 298 297 297 297 297 297 297 296 296 296 296 296 296 296 296 296 296 296 295 295 295 294 294 293 293 293 293 293 293 293 293 294 294 294 294 295 295 295 295 295 295 295 295 295 294 294 294 294 294 295 295 295 295 295 295 295 295 295 296 297 298 300 301 302 302 302 303 303 304 305 305 305
296 297 297 297 297 297 297 298 297 297 297 297 297 297 297 297 297 297 297 297 296 296 296 296 296 296 296 296 296 296 296 295 295 294 293 293 293 293 292 293 293 293 293 293 293 294 294 294 294 295 295 295 295 295 295 295 295 295 295 294 293 293 293 294 294 294 294 294 295 295 295 295 296 296 297 298 300 300 301 302 302 302 303 303 303 303
296 297 296 297 298 298 298 298 298 297 297 298 297 297 297 297 297 297 297 297 296 296 296 296 296 296 296 296 296 295 295 294 293 293 293 292 292 292 292 292 293 292 292 292 293 293 294 294 294 295 295 296 296 296 296 296 296 296 295 295 294 293 293 292 293 293 294 294 294 294 295 295 295 296 296 297 299 300 300 301 301 302 302 302 302 301
297 297 296 297 298 297 298 298 297 296 297 297 297 297 297 297 297 296 296 296 296 296 296 296 296 296 296 295 295 294 293 292 292 291 291 292 292 292 292 292 292 292 292 293 293 294 294 295 295 296 296 296 296 296 296 296 296 296 296 296 295 295 294 293 292 292 293 293 293 294 294 294 295 296 296 296 297 298 299 299 300 301 301 301 301 301
Wind_Speed
4 3 2 4 4 5 5 3 3 3 3 4 3 2 2 2 3 4 2 2 2 3 4 5 8 9 9 5 3 8 12 13 13 13 14 16 16 17 17 17 17 16 16 21 25 25 24 22 21 21 21 22 24 25 27 25 24 24 24 24 23 21 21 20 17 15 13 10 9 8 7 6 6 6 5 4 2 2 2 0 1 2 1 2 3 4
3 3 3 5 4 4 3 4 4 4 3 2 2 1 2 3 4 3 1 1 2 3 2 1 5 9 8 2 2 8 12 12 15 15 15 18 18 17 18 17 17 15 15 22 25 25 26 24 22 22 22 24 25 25 26 27 26 25 24 23 22 21 21 19 16 13 10 8 6 6 7 7 7 6 5 4 2 1 2 2 2 3 2 1 1 2
2 4 6 4 4 5 4 4 5 4 3 2 1 1 2 2 3 4 1 1 1 2 2 1 3 6 4 1 0 8 10 9 12 13 12 16 18 18 19 18 18 16 16 22 25 25 27 24 23 24 23 25 25 25 26 26 26 25 24 23 21 21 20 18 16 12 10 8 8 7 7 7 6 5 4 4 4 4 3 4 3 3 2 2 1 1
2 3 4 4 7 6 4 3 5 4 2 2 2 2 2 1 1 2 2 2 1 1 2 2 2 2 1 0 1 4 6 3 6 9 8 12 17 18 17 17 18 17 19 23 25 26 26 25 25 25 26 25 25 25 26 26 26 25 25 23 21 21 20 18 16 13 10 9 9 9 8 7 5 4 3 4 6 6 5 4 5 4 4 3 2 2
3 1 3 7 6 5 4 4 5 4 3 2 3 4 4 3 4 3 0 1 1 1 0 2 3 1 2 1 2 2 3 4 3 7 9 11 14 15 14 16 17 18 22 26 27 27 27 26 26 26 27 27 26 25 26 27 27 26 24 22 22 22 21 19 16 14 12 11 11 10 9 8 5 4 4 5 6 6 5 4 4 4 3 3 2 2
4 3 7 6 3 4 4 3 5 5 3 2 5 9 9 5 3 3 2 1 2 2 1 1 2 3 2 0 2 2 3 6 2 5 10 11 13 15 16 17 17 19 25 27 27 28 28 27 26 26 28 30 29 27 26 27 28 27 24 22 23 23 21 20 17 15 14 12 11 9 7 6 5 4 4 5 6 6 6 5 4 3 2 2 3 3
1 3 5 3 3 4 4 3 5 6 4 1 4 8 8 4 2 2 1 1 2 1 2 2 1 2 1 2 2 2 3 7 4 5 9 11 14 16 17 17 18 23 27 27 27 28 28 28 28 28 30 32 32 30 29 30 31 29 25 23 23 24 23 21 19 17 16 14 11 8 7 7 6 5 4 6 6 6 6 6 4 3 2 2 3 3
2 4 2 2 4 4 4 4 6 8 6 2 2 5 8 6 5 4 3 2 1 1 1 1 1 2 2 2 1 2 4 6 6 7 8 10 14 16 17 18 20 25 27 27 28 28 29 29 29 30 31 32 33 32 31 32 32 31 27 25 24 24 24 23 21 19 17 15 12 10 8 7 6 4 4 6 6 6 6 5 4 3 2 2 1 2
2 4 4 4 3 2 4 3 7 11 5 1 2 5 6 5 4 3 2 2 1 1 3 1 2 1 2 0 1 2 3 5 6 8 8 11 13 14 16 18 21 25 26 27 29 28 29 30 30 30 30 32 33 33 34 34 33 31 28 27 26 24 24 23 21 20 18 15 13 11 9 6 4 3 4 5 6 5 4 4 3 2 3 2 1 2
1 4 5 5 3 2 3 1 7 10 3 1 5 6 5 4 3 2 1 2 1 3 3 2 4 1 3 0 1 1 1 1 1 3 6 9 12 14 16 19 21 24 25 27 28 27 27 27 28 28 29 31 29 25 25 27 28 30 31 30 27 24 23 23 21 20 19 16 13 11 9 6 4 4 5 6 6 5 4 4 3 3 3 2 0 1
1 1 2 3 3 2 3 3 2 3 2 5 5 6 5 3 2 1 2 1 1 3 1 3 5 1 3 1 1 1 1 1 3 3 1 3 9 14 17 20 22 23 24 25 25 24 24 25 26 28 29 31 29 21 18 18 16 18 24 27 28 27 23 22 21 20 19 16 13 11 9 6 4 5 6 7 7 5 4 5 5 5 4 2 0 1
2 1 1 3 3 4 6 5 2 2 2 3 2 3 4 1 1 1 1 0 3 3 1 3 3 2 2 2 0 2 2 2 3 4 5 5 6 9 14 18 20 22 22 22 22 21 22 24 25 27 29 31 31 26 23 23 19 16 16 17 20 23 23 22 21 20 19 17 13 11 9 6 4 5 6 6 6 5 5 6 7 7 5 3 2 4
1 3 2 2 3 5 4 4 3 1 0 2 2 3 3 1 1 2 1 2 3 2 1 3 1 1 1 0 2 5 5 5 4 5 8 9 10 11 11 14 17 19 19 20 20 20 20 21 21 23 24 25 27 25 23 24 23 20 20 18 16 16 19 21 21 20 19 17 14 11 9 6 3 4 5 5 5 4 5 6 7 7 5 4 5 7
2 2 1 1 3 6 6 4 3 3 3 4 4 4 4 3 2 2 2 1 2 1 1 2 1 1 2 1 4 6 7 9 8 8 8 9 12 12 10 9 11 14 16 18 18 17 16 15 13 12 11 12 16 19 20 18 17 17 19 21 20 19 18 18 19 21 21 19 17 12 8 4 2 2 4 4 4 3 4 6 7 6 5 6 6 8
2 2 3 3 1 4 8 6 3 4 4 3 1 2 4 3 3 3 3 3 3 1 2 1 2 2 3 1 4 6 6 8 9 9 8 7 7 6 4 2 5 10 13 15 15 13 12 11 10 9 8 7 8 12 15 14 12 14 16 19 21 21 20 20 20 22 24 22 17 12 7 4 3 2 1 2 3 2 2 6 6 5 5 6 7 8
1 2 2 1 0 3 5 3 3 4 4 1 1 2 2 3 3 1 0 1 1 1 1 2 2 1 2 1 3 4 3 6 11 12 11 10 8 6 6 7 9 12 14 14 14 13 11 9 8 7 9 9 9 12 17 17 12 11 14 17 20 21 21 22 25 26 26 23 20 16 12 9 8 5 4 4 4 4 4 5 5 3 4 5 7 8
1 2 1 1 1 1 3 2 3 1 2 3 2 3 1 0 3 3 2 2 1 3 2 1 1 0 2 3 1 0 2 6 10 11 12 11 9 8 9 11 13 16 16 15 14 12 12 12 9 4 3 4 6 10 15 18 14 13 13 15 19 22 22 22 26 31 30 26 23 20 17 14 12 9 6 4 5 5 6 7 5 1 3 5 7 8
2 1 1 1 2 1 2 3 5 3 1 3 3 5 4 2 2 2 2 2 0 4 2 1 1 1 3 3 1 3 4 6 9 9 10 11 11 10 9 12 18 20 19 18 17 15 15 12 6 7 12 12 10 6 7 13 14 14 15 16 19 21 21 22 26 31 31 26 21 18 17 16 16 16 14 9 6 4 4 5 4 1 3 5 7 8
2 2 1 0 1 1 2 3 5 4 4 1 2 5 3 2 2 2 2 2 4 3 1 2 0 2 2 0 4 7 8 10 10 9 8 11 11 10 7 9 15 16 15 15 14 13 14 10 8 15 19 13 10 9 7 11 13 14 17 19 20 20 21 24 27 30 30 26 23 19 18 19 21 22 19 14 7 4 2 1 2 2 4 6 7 8
1 2 2 0 1 1 1 1 3 3 4 3 3 4 1 1 2 2 1 2 4 4 2 2 2 2 1 2 6 8 10 10 10 8 7 9 10 10 8 7 8 8 8 8 7 6 6 7 9 14 13 8 8 8 10 12 13 16 18 18 18 18 20 23 26 28 27 24 23 21 19 20 24 26 19 13 14 13 9 8 6 4 5 5 6 7
2 1 2 0 1 2 1 0 2 3 2 3 4 4 1 1 1 1 1 1 2 4 3 3 3 2 2 3 6 8 9 9 8 7 5 7 10 11 10 10 10 10 10 10 11 12 11 10 8 8 6 4 4 6 9 11 12 14 14 14 14 14 17 20 23 23 22 21 21 21 19 19 23 25 19 13 15 15 16 14 9 7 7 6 5 5
1 2 2 0 0 2 0 2 1 2 2 2 3 3 3 3 3 4 3 1 1 1 2 3 4 2 3 3 5 6 8 8 7 4 2 8 12 13 13 13 14 15 15 15 16 16 16 16 15 13 12 10 8 6 4 4 5 5 6 6 7 9 12 14 15 15 16 17 17 17 17 17 20 22 18 14 13 17 19 16 11 10 9 7 7 6
1 2 2 1 0 1 2 1 1 1 1 1 1 1 2 2 2 4 4 3 2 1 1 1 3 2 3 4 5 5 6 8 6 2 7 11 13 15 17 17 18 20 20 21 20 20 19 18 18 17 16 16 15 14 12 10 9 8 6 5 5 4 5 5 6 7 9 10 10 12 13 15 18 18 15 14 16 20 21 17 12 12 11 10 10 9
1 2 2 2 0 2 2 2 1 2 2 1 2 2 1 1 1 1 2 2 3 3 2 2 3 2 3 4 5 7 8 10 10 6 9 13 15 17 20 22 23 23 24 24 23 22 20 19 18 17 16 15 15 14 14 13 13 12 11 10 8 7 6 5 3 3 4 5 6 8 10 14 16 16 16 17 20 23 24 20 15 14 14 13 13 12
1 1 1 3 2 1 2 3 2 0 0 1 1 1 1 3 4 3 1 1 2 2 2 3 3 2 3 4 7 9 10 11 12 11 10 13 16 19 23 25 25 26 25 24 23 22 20 19 17 16 16 15 14 13 13 13 12 12 11 10 9 8 7 5 4 3 4 4 5 6 9 12 13 15 19 20 19 21 24 23 19 17 17 17 16 15
2 1 1 2 5 5 4 3 1 1 0 1 1 1 1 2 4 3 2 2 3 3 2 2 2 4 3 5 10 10 10 10 12 12 13 15 18 22 26 27 27 27 27 26 24 22 21 19 18 17 16 15 14 14 13 13 12 11 10 9 9 8 6 4 3 1 1 3 5 6 6 8 10 13 18 18 16 16 19 23 23 20 18 19 19 19
3 3 3 3 1 1 1 0 2 2 0 1 2 3 3 2 1 3 3 2 3 5 3 1 2 6 3 7 9 9 9 9 9 11 12 14 18 24 28 29 29 29 29 27 26 24 23 22 20 19 17 15 14 14 14 14 13 12 11 10 9 8 7 5 3 1 1 3 6 7 7 8 10 12 15 16 16 16 18 22 25 23 20 20 22 23
4 2 2 5 6 4 2 1 2 2 3 3 3 3 4 5 2 2 3 1 3 5 4 1 3 5 3 6 7 7 8 8 9 10 11 12 15 21 27 29 30 30 30 29 27 26 25 24 23 21 19 17 15 14 14 14 14 13 12 11 9 9 8 6 4 1 1 4 6 7 8 10 11 13 14 16 17 18 19 23 26 25 23 22 23 25
5 2 1 3 5 5 6 5 5 6 5 5 6 5 6 7 5 3 3 2 1 2 3 5 7 6 5 5 5 6 7 8 9 10 11 14 16 22 27 29 30 31 31 30 29 27 26 25 24 23 21 19 17 16 15 14 13 13 11 10 9 8 8 7 6 4 2 0 1 2 4 7 10 14 16 18 21 22 22 25 28 26 24 23 22 23
4 2 0 2 4 6 9 8 7 8 5 5 8 8 7 8 9 8 6 4 5 6 6 11 12 9 5 4 5 6 6 8 10 12 15 16 18 23 28 29 30 32 32 31 30 28 27 26 24 23 21 20 19 18 17 15 14 12 10 9 9 8 8 7 6 6 6 5 3 2 1 4 7 10 14 16 20 21 21 24 29 27 22 20 20 21
2 2 2 2 4 5 7 7 7 8 6 5 6 5 5 8 9 8 6 6 7 8 7 10 12 8 4 4 6 6 6 9 13 16 17 16 18 24 27 28 31 32 31 30 29 27 26 25 24 22 21 21 20 18 17 16 14 12 10 9 8 7 7 7 7 6 5 5 4 2 1 2 4 8 10 12 14 16 17 20 26 28 25 22 21 21
2 4 2 3 3 1 3 4 5 6 6 4 3 3 4 4 4 4 4 2 2 6 8 7 7 5 4 6 8 7 9 13 15 15 15 16 19 24 26 27 30 31 30 29 28 26 25 24 23 22 22 20 19 17 16 14 12 11 10 10 8 7 6 5 5 4 4 3 2 0 1 2 4 6 8 9 11 12 14 17 21 25 26 24 21 20
2 5 5 3 3 2 2 2 3 4 3 4 3 1 3 3 3 3 4 4 3 3 4 3 4 7 8 7 8 8 11 13 13 13 14 16 20 24 26 27 28 28 28 27 26 25 24 23 22 21 20 19 18 17 15 13 12 11 11 10 8 7 6 5 4 3 3 2 2 2 2 3 4 5 7 9 9 10 11 14 18 20 21 20 18 19
2 6 5 3 3 4 4 5 4 2 3 2 2 2 2 1 2 4 4 4 4 2 3 4 7 10 8 7 8 10 10 12 12 14 17 18 20 24 25 26 25 24 24 23 22 22 21 20 19 18 16 16 15 14 12 11 11 11 10 8 7 6 5 5 5 5 4 4 3 3 4 5 6 7 8 9 10 10 11 13 16 17 18 19 19 20
3 4 3 1 2 4 5 6 5 4 3 3 4 3 3 2 6 11 10 7 5 6 9 10 9 9 10 10 11 12 13 13 14 16 19 20 21 22 22 22 21 21 20 20 19 19 18 18 17 16 15 14 13 12 10 9 9 9 8 8 7 5 5 5 4 4 4 4 5 5 4 6 7 8 9 10 12 13 14 16 18 20 21 22 22 21
2 3 2 2 2 3 5 5 4 2 2 3 4 2 4 5 6 9 10 8 6 4 7 11 10 10 11 12 12 14 15 15 16 16 17 17 17 18 18 18 17 17 17 17 16 16 16 16 16 15 15 14 13 12 11 10 9 9 8 7 6 5 4 4 4 4 4 4 4 5 5 6 7 8 8 10 13 16 18 19 20 22 22 21 21 20
2 2 2 1 1 2 3 3 0 1 2 1 3 2 3 2 1 2 4 4 4 2 5 11 11 10 11 11 11 11 11 10 11 11 12 13 14 14 14 14 13 13 13 13 13 14 14 14 14 14 14 15 15 14 13 11 11 11 10 8 8 6 5 4 4 4 5 5 6 7 7 7 7 8 8 8 10 13 16 18 18 19 19 20 21 20
3 2 1 2 1 1 2 3 1 1 2 3 3 2 1 1 1 1 3 4 2 1 5 9 10 9 9 8 7 6 3 3 4 5 8 10 11 10 11 11 11 11 11 12 12 13 13 14 14 14 15 16 16 16 14 12 12 12 11 11 10 9 8 7 7 6 6 7 8 9 10 10 9 9 9 8 8 8 11 13 15 16 18 19 20 19
6 4 2 2 2 1 2 3 3 2 0 2 2 1 3 3 2 2 2 3 3 3 6 9 8 7 7 7 7 6 3 1 3 3 5 7 9 9 9 10 11 11 12 12 13 14 14 15 15 15 16 17 17 18 17 16 16 15 14 14 13 12 12 11 10 9 10 10 11 11 11 13 13 12 11 11 9 7 7 9 11 12 14 15 14 14
6 4 2 2 2 2 1 1 1 1 1 3 3 4 6 3 3 4 3 4 5 6 8 9 8 7 6 7 8 5 1 1 3 3 3 5 7 9 10 11 12 13 14 14 15 15 16 17 17 18 19 19 20 20 20 21 21 20 19 18 17 16 16 15 14 13 13 14 14 14 13 14 14 15 15 13 11 10 9 9 9 10 10 11 11 11
4 3 1 2 2 1 1 1 1 1 1 1 5 7 5 1 4 4 2 4 7 8 10 10 10 9 9 8 6 4 4 5 5 3 2 5 7 9 11 12 13 14 15 16 17 17 18 19 19 20 20 21 21 21 22 23 23 23 23 22 21 19 19 19 18 17 17 16 16 16 15 14 14 15 16 15 14 14 14 13 12 11 11 12 12 13
3 2 2 2 2 1 1 2 0 1 1 2 5 5 2 1 3 1 4 9 12 11 11 11 10 10 10 9 8 7 6 5 3 3 4 7 9 10 12 13 14 15 16 17 18 19 21 21 22 22 22 23 23 23 24 24 25 25 25 24 23 22 22 21 21 21 20 20 19 18 16 15 14 14 14 14 15 16 17 16 16 15 15 15 15 15
2 1 1 2 1 1 2 2 1 2 1 4 4 2 2 1 3 7 10 12 13 13 11 10 9 8 8 8 7 6 5 4 4 5 7 9 10 11 13 14 15 17 18 19 20 22 23 24 24 25 25 25 26 26 27 27 27 27 27 26 25 24 25 24 23 23 23 22 22 22 20 19 17 15 14 14 15 18 20 19 18 18 18 18 19 19
3 2 1 1 1 0 1 2 1 1 4 5 2 2 5 8 12 13 12 11 11 10 9 8 7 6 6 5 5 5 5 5 7 8 10 11 12 13 15 16 17 19 20 22 22 23 24 25 26 26 26 26 26 27 28 29 30 30 30 29 27 27 27 27 26 26 26 25 25 25 24 23 21 19 17 15 15 18 21 22 22 22 21 21 21 22
3 3 2 2 2 2 2 3 2 2 4 6 8 11 12 14 13 12 11 10 8 7 7 7 6 4 4 4 4 6 7 7 9 10 12 13 14 15 17 18 19 21 21 22 22 23 24 25 26 27 27 27 26 27 27 28 30 31 31 31 29 29 29 29 29 28 28 28 27 27 26 25 24 23 21 19 16 16 20 23 25 25 24 23 23 24
2 1 1 3 4 5 6 5 4 4 8 12 13 13 13 12 10 9 9 8 7 5 5 4 4 3 3 5 6 7 8 9 11 12 13 14 16 17 19 20 20 21 21 22 23 24 25 27 28 29 30 30 29 29 29 28 29 30 32 32 32 31 30 30 30 30 30 30 29 29 28 27 27 26 25 23 19 17 18 21 24 27 27 26 25 26
1 1 2 3 4 3 3 3 2 4 6 8 10 11 10 9 8 6 6 5 4 4 3 3 4 4 5 7 8 9 10 11 12 13 15 16 18 19 20 20 20 21 22 23 24 25 27 28 29 30 30 30 29 28 27 27 27 29 30 31 32 33 33 32 32 31 31 31 31 31 30 29 29 29 29 27 24 21 20 19 21 24 27 27 27 28
2 3 3 3 1 1 3 4 3 1 1 3 6 7 6 5 5 4 4 4 3 2 3 4 5 6 8 9 9 10 10 11 13 15 17 18 19 19 19 20 20 21 22 23 25 26 26 26 26 26 26 25 24 23 23 24 25 26 27 28 29 30 32 34 34 34 33 32 32 32 33 32 31 30 30 30 29 28 27 25 22 21 22 23 24 26
1 1 2 2 3 3 3 4 4 2 2 5 6 5 5 5 4 3 3 2 1 2 3 4 6 7 8 9 10 11 11 13 14 16 17 18 19 19 19 20 20 20 21 23 24 24 23 22 21 21 21 21 21 21 22 23 23 23 23 22 22 23 26 29 32 34 35 34 33 33 33 33 33 32 30 30 31 30 31 31 29 26 24 23 22 21
1 2 2 2 4 3 2 6 8 3 1 6 9 8 6 6 5 4 3 1 1 3 4 6 6 7 8 9 10 11 12 14 15 17 18 18 19 19 19 20 20 19 20 21 21 19 18 17 17 18 19 20 22 23 24 24 25 25 24 22 21 21 22 23 26 30 33 33 33 34 34 33 34 34 32 31 31 29 28 29 32 33 31 29 26 22
1 5 4 2 2 1 3 12 13 3 4 4 9 9 7 6 5 4 4 4 4 5 5 5 6 7 7 8 10 11 13 15 16 17 18 18 18 18 18 19 20 22 22 21 18 16 15 14 16 18 20 21 23 24 25 26 27 27 27 26 25 25 24 23 23 26 29 29 29 31 32 33 34 34 32 31 32 31 28 26 28 31 32 31 29 24
Wind_Direction
176 160 177 200 197 194 200 189 140 117 115 125 134 152 189 233 259 250 238 288 250 228 238 219 222 232 234 230 180 185 193 198 195 186 190 193 194 199 197 197 197 194 196 199 200 201 201 200 197 193 190 189 192 195 189 181 188 194 194 195 189 186 194 197 192 191 193 191 185 177 170 166 170 174 176 182 202 225 233 184 84 102 170 214 218 220
176 178 217 219 197 179 175 144 121 113 103 119 157 192 230 220 252 259 178 328 274 238 259 168 223 236 233 229 128 178 191 201 201 192 192 194 194 199 200 201 199 193 197 202 201 203 204 203 202 199 192 192 194 197 194 189 191 193 195 197 190 187 193 191 186 186 186 183 173 164 161 161 163 163 161 149 118 128 169 166 121 93 99 136 195 233
168 205 230 206 143 105 98 132 137 126 123 124 148 228 244 203 257 273 138 95 241 226 248 165 220 246 243 287 256 197 197 208 211 204 199 195 193 198 201 201 199 194 195 202 203 204 206 207 205 200 193 194 198 200 199 194 194 195 197 198 191 189 191 187 185 185 184 180 168 161 160 160 161 158 143 111 77 72 113 132 127 109 96 93 100 176
175 226 235 155 139 127 101 128 135 124 146 168 169 214 243 182 231 235 134 89 60 334 280 177 181 281 324 68 202 208 214 247 226 219 218 203 201 205 204 202 201 197 195 200 204 205 206 207 205 200 194 195 199 202 202 197 194 195 198 198 190 189 190 187 187 187 186 183 172 166 169 168 164 151 120 84 66 66 85 99 102 101 96 92 95 113
213 214 114 123 148 156 122 136 159 163 185 208 206 216 238 226 213 226 349 44 133 63 343 167 151 104 32 172 145 129 215 244 234 212 213 209 210 209 205 206 205 202 202 203 205 205 205 205 204 200 195 196 198 198 197 196 195 195 196 195 189 190 192 190 190 186 183 182 176 172 172 178 176 148 112 82 70 77 91 99 99 101 106 112 130 149
241 165 141 132 138 158 140 163 192 189 189 221 216 216 228 229 213 240 327 16 194 165 122 234 182 137 46 185 156 59 207 211 206 207 209 204 204 205 205 208 207 208 210 208 207 208 206 205 204 200 196 198 200 199 198 196 196 196 195 193 192 193 193 192 190 185 183 183 179 171 160 158 150 127 104 81 70 83 100 113 127 142 162 184 207 219
233 138 153 146 137 165 177 206 207 190 180 215 213 207 213 219 225 244 261 221 219 156 89 321 247 150 90 131 126 352 217 198 197 212 214 203 201 206 207 208 208 212 214 212 210 211 210 208 206 203 200 201 202 201 200 199 199 199 196 194 195 195 193 192 189 185 185 183 176 163 143 126 116 111 95 76 71 85 96 99 111 127 150 192 219 230
146 127 120 117 121 157 195 226 202 180 175 194 187 172 176 193 217 215 195 200 271 15 126 340 333 150 145 132 115 288 198 184 203 212 216 214 208 208 207 207 211 214 216 214 212 212 213 212 211 208 206 206 205 202 200 200 200 199 198 197 200 199 195 193 191 189 186 181 173 163 152 138 127 113 79 67 73 89 95 90 86 69 59 77 122 152
134 169 172 149 130 171 205 221 178 175 186 256 141 141 153 174 189 170 169 167 38 250 189 84 1 172 150 91 291 246 182 173 201 208 214 220 215 211 209 210 215 218 219 219 217 214 215 216 216 216 216 214 210 206 204 202 202 202 201 201 205 205 201 198 196 192 189 185 177 168 158 153 140 101 62 50 54 69 78 78 74 47 26 26 63 130
116 206 183 158 183 220 210 186 168 180 197 144 136 107 94 91 91 108 150 130 96 239 205 50 352 216 151 169 300 66 108 143 253 220 207 222 224 219 215 214 217 220 221 223 223 220 218 218 219 221 222 220 214 211 210 207 206 207 206 208 211 210 207 205 201 197 194 190 185 178 166 160 139 87 56 36 29 36 42 33 33 31 20 9 356 114
12 238 181 188 219 176 115 85 147 182 119 152 147 101 93 73 51 76 39 52 178 221 203 27 348 295 156 174 201 93 69 351 320 315 247 239 236 230 226 222 220 221 223 224 224 222 221 221 222 222 224 224 224 226 226 218 217 218 213 210 213 214 212 210 204 200 200 196 191 186 175 162 130 77 51 33 24 24 24 11 10 18 19 23 87 106
359 217 228 235 200 131 104 90 60 19 100 161 155 115 132 72 30 96 34 311 202 199 67 28 349 280 197 161 121 316 323 327 301 306 324 320 278 252 239 230 225 223 223 223 221 220 221 222 224 224 225 228 229 227 224 221 229 244 235 219 215 215 213 213 209 203 203 203 201 196 184 169 129 81 58 41 35 30 21 12 11 17 23 39 98 118
256 220 281 300 197 170 143 101 98 74 174 183 134 140 169 149 157 199 203 214 218 214 36 25 345 258 203 115 316 310 329 345 324 305 305 303 299 290 266 243 232 224 219 219 219 217 218 221 222 224 226 231 231 226 220 220 227 240 243 239 241 233 222 219 216 210 209 209 210 208 193 175 132 78 53 42 50 41 22 19 19 24 40 66 102 119
225 241 291 267 210 190 185 168 158 177 193 189 162 160 178 153 155 193 183 229 251 223 59 17 290 197 140 84 308 309 332 341 332 317 304 297 297 296 287 261 233 218 210 209 211 208 207 208 206 210 220 233 238 233 228 224 226 234 237 238 246 248 244 240 230 217 213 215 215 211 204 195 154 64 34 33 56 51 26 28 29 36 62 90 110 120
203 239 201 194 185 177 189 194 168 142 159 182 147 152 178 169 175 208 199 197 209 174 87 104 216 185 143 131 316 313 326 346 353 348 339 334 328 318 305 257 198 191 190 191 191 185 182 182 179 184 202 231 266 267 253 243 238 242 243 242 243 241 242 252 251 230 218 218 214 203 205 216 208 187 136 109 120 124 58 45 41 53 84 109 123 127
194 262 241 253 4 168 194 189 115 117 136 134 90 147 189 188 160 136 152 182 191 165 137 183 223 305 116 136 320 324 350 18 21 14 9 10 15 43 85 113 139 155 161 167 167 161 159 156 155 189 225 249 276 279 263 255 259 263 258 251 246 239 233 244 254 244 231 229 224 211 207 209 208 205 181 156 156 153 110 69 48 66 110 128 134 134
177 260 288 6 102 196 259 188 124 175 163 133 173 177 178 103 119 118 116 34 355 203 181 147 254 244 140 158 188 79 76 41 25 19 21 21 28 56 85 111 129 139 141 145 147 142 140 128 114 132 186 210 235 255 257 256 264 267 262 255 246 241 239 244 250 246 239 236 227 214 207 204 202 195 186 184 174 157 127 92 65 64 144 145 144 140
198 250 327 65 123 37 338 118 92 22 83 141 185 162 132 69 78 114 153 88 173 207 186 69 342 244 181 164 67 3 8 14 9 10 25 30 35 51 78 114 128 133 135 139 143 148 156 151 144 167 156 158 181 197 241 258 266 260 250 247 241 242 249 250 246 241 239 235 224 216 212 206 204 198 187 175 160 139 109 97 91 173 189 163 151 147
198 254 303 338 171 26 9 127 112 48 32 40 153 135 133 191 160 151 163 153 181 197 168 145 224 265 206 43 352 337 339 347 348 355 22 31 31 39 60 107 126 131 132 138 145 155 167 179 200 182 166 168 183 180 210 246 260 255 246 244 244 249 255 254 246 241 240 236 227 229 227 217 218 213 193 176 192 259 301 187 162 198 207 185 161 154
138 246 248 189 315 350 359 207 175 133 61 52 119 125 29 280 169 167 158 167 187 187 156 158 192 221 174 2 325 309 323 333 331 340 12 34 36 35 44 73 96 95 91 100 104 105 134 165 191 186 181 197 213 218 238 246 248 249 249 251 253 255 254 251 247 243 243 240 235 240 240 232 230 221 206 209 238 250 237 212 203 196 208 211 186 168
104 216 224 133 334 207 178 295 232 189 132 128 156 161 146 85 107 158 112 39 195 175 157 171 192 183 87 6 311 304 318 321 311 313 355 45 54 50 55 75 84 79 79 86 89 87 97 115 135 157 166 180 211 238 245 242 245 249 255 260 261 258 251 246 244 244 248 250 251 256 256 250 238 226 228 248 244 226 209 205 205 196 202 220 217 197
142 173 199 197 351 202 18 12 287 246 218 179 175 178 160 131 147 170 169 156 357 168 165 180 188 152 51 354 322 321 321 319 311 295 47 68 73 71 70 80 88 89 91 94 98 99 103 107 110 114 117 117 117 121 146 181 209 224 239 251 248 247 246 245 246 251 258 259 262 266 263 253 238 232 246 257 229 205 203 208 209 202 202 212 221 217
125 121 126 76 340 257 314 327 181 115 82 154 106 131 146 133 150 177 187 177 137 135 135 169 199 151 53 1 347 348 343 351 2 110 114 88 81 81 82 85 87 90 91 93 98 101 103 103 102 104 108 108 108 104 100 101 105 111 118 128 148 179 206 221 236 249 259 262 265 266 256 241 237 242 249 239 216 206 209 214 214 209 208 209 217 224
144 96 85 104 336 300 280 239 206 65 74 90 50 71 143 136 102 133 169 157 151 156 145 167 200 152 63 14 6 15 17 26 35 59 93 90 83 82 86 87 86 86 85 86 90 93 97 100 99 99 101 100 101 100 98 97 94 92 94 99 105 110 120 130 145 186 220 237 245 250 245 237 238 237 223 211 208 210 216 222 220 213 213 211 213 222
166 36 70 138 143 176 197 198 201 155 56 71 63 42 140 103 103 112 98 114 162 179 175 187 186 132 81 31 26 27 31 42 43 41 62 79 79 79 82 84 83 83 82 82 82 85 91 95 96 97 98 99 101 102 102 101 98 96 94 93 95 95 97 103 110 144 181 194 211 232 239 238 234 219 208 208 214 220 225 230 230 224 220 216 214 218
100 49 16 179 179 181 182 183 188 192 220 63 68 359 353 114 125 126 127 165 188 178 179 206 157 128 104 30 29 30 33 45 47 45 57 69 74 79 80 81 81 80 80 80 78 78 79 80 82 86 92 97 99 102 107 110 111 113 111 106 103 99 93 86 79 88 193 206 218 226 229 231 229 217 214 220 231 238 236 233 232 234 231 226 222 220
97 61 28 19 78 154 147 144 306 295 244 88 56 20 359 348 85 108 131 186 175 148 164 261 119 133 107 19 26 35 34 44 49 45 54 64 71 78 79 79 80 79 79 80 78 77 75 72 71 72 75 80 83 88 96 102 108 113 116 116 112 109 107 99 77 29 291 259 251 250 243 236 233 229 228 232 242 250 244 234 232 237 241 238 232 226
99 63 34 48 45 27 9 343 330 11 65 53 19 2 351 338 323 130 133 144 138 152 179 174 112 126 85 25 32 38 36 54 61 50 55 63 69 77 79 79 78 77 78 78 76 76 74 72 71 69 69 71 72 76 81 86 93 98 102 106 107 107 108 104 103 107 274 267 265 265 261 251 244 241 241 244 251 255 251 241 236 238 245 248 242 235
109 73 327 84 67 36 21 27 48 65 73 56 37 22 6 1 7 72 79 357 265 184 161 124 109 97 81 60 47 46 52 69 68 58 65 68 70 76 77 74 73 72 74 74 72 72 72 71 71 70 70 71 71 73 75 76 80 83 88 94 97 99 99 97 101 104 103 138 290 294 279 267 255 250 251 252 255 258 256 246 238 238 247 252 251 247
110 91 250 113 72 30 18 28 56 67 61 46 40 32 31 41 49 66 68 44 60 76 92 110 104 85 76 71 57 65 78 82 77 69 68 67 68 72 73 70 68 68 70 70 69 69 68 67 68 67 68 68 67 69 71 72 74 76 80 85 89 94 95 93 95 96 96 98 90 75 287 272 262 256 257 258 258 260 257 245 234 237 247 251 253 254
108 144 179 107 66 11 356 11 37 57 62 45 33 26 41 61 61 65 72 64 70 81 91 103 101 90 78 79 80 88 91 83 77 69 65 63 65 70 70 67 66 67 67 67 66 66 65 65 64 63 62 62 61 63 65 67 70 73 75 78 82 90 94 96 96 88 82 89 101 118 160 245 258 258 258 261 265 267 263 248 236 239 248 253 251 245
97 125 144 113 106 285 318 3 15 34 35 0 344 2 19 51 71 70 68 41 80 126 128 115 106 112 120 108 100 95 86 80 74 68 65 62 63 68 68 65 65 65 64 63 62 61 60 59 59 59 58 57 56 55 55 56 60 64 65 67 71 72 77 86 91 85 67 55 54 99 194 244 256 261 261 264 271 271 264 254 244 242 247 250 247 242
128 144 152 147 157 185 150 93 50 32 1 313 293 345 19 52 98 96 62 21 17 130 148 132 117 125 130 125 110 93 81 77 71 67 69 66 65 68 67 65 64 62 60 59 58 57 56 54 54 53 53 53 50 49 48 46 48 49 46 47 52 55 55 49 45 43 30 8 338 297 286 282 275 272 270 268 269 267 256 249 245 243 244 244 243 248
145 153 152 151 156 154 134 115 108 154 210 268 319 283 280 336 103 110 81 25 15 73 91 83 107 123 129 124 110 98 88 83 79 75 73 71 69 68 65 63 61 58 56 54 51 51 50 47 47 47 47 48 46 42 43 44 46 45 38 33 32 33 37 35 28 20 9 349 324 296 282 283 282 281 281 277 271 264 253 245 243 240 239 238 239 244
130 130 129 112 110 125 129 126 140 187 227 335 349 292 224 158 113 100 82 48 46 94 109 107 114 125 123 114 108 105 100 93 85 77 72 70 68 66 63 59 55 51 48 45 41 40 39 36 36 35 34 35 34 30 30 33 37 38 35 31 24 15 12 9 3 2 359 349 337 323 299 284 279 275 275 274 269 263 258 254 252 248 244 243 242 241
127 122 104 78 79 124 150 165 172 201 310 359 27 79 129 134 123 99 78 52 40 71 115 119 120 125 122 119 116 110 104 95 82 71 67 66 63 61 60 56 51 46 41 36 30 25 23 21 19 17 14 13 14 13 12 12 11 12 16 18 18 14 3 347 333 321 314 312 315 316 311 305 295 285 277 269 261 257 256 257 258 256 252 246 241 237
104 117 111 100 84 141 152 167 166 342 290 161 105 117 136 130 135 100 87 74 33 27 119 124 127 133 131 130 130 118 104 94 82 64 55 56 56 55 56 53 48 43 36 30 22 15 10 6 3 0 356 354 352 352 354 355 354 351 349 346 347 350 344 330 314 300 288 279 275 275 280 290 297 297 292 280 268 260 255 253 253 254 251 243 239 237
53 46 99 161 166 114 140 154 150 233 226 171 129 118 28 20 260 208 113 103 72 76 135 131 133 142 146 154 164 157 123 98 92 62 41 42 44 44 45 41 35 29 22 15 9 3 357 354 351 347 343 339 335 334 334 334 333 333 331 327 324 321 319 314 303 290 280 276 272 267 264 265 271 281 286 285 281 269 253 245 245 248 248 243 241 240
59 43 48 111 110 135 168 178 184 186 260 45 83 55 343 323 230 204 149 140 145 160 156 142 135 145 161 174 179 181 197 166 118 75 27 26 27 23 22 21 16 10 4 357 351 346 342 340 337 333 329 325 323 322 321 318 316 315 313 312 309 305 302 296 288 281 274 271 269 267 265 263 260 262 269 275 276 265 245 236 233 235 237 234 227 224
49 36 38 103 117 130 142 170 233 203 35 7 346 326 322 306 179 182 196 166 152 166 161 142 127 124 131 146 156 162 181 99 106 87 16 10 10 3 1 1 357 353 348 343 337 332 328 325 323 320 319 318 316 315 313 310 308 307 305 302 299 298 293 286 280 273 265 261 260 259 260 262 258 255 256 260 261 255 241 231 224 220 222 220 211 204
38 29 36 112 114 96 111 120 295 262 163 297 313 325 326 240 181 207 215 132 133 151 145 125 113 106 100 105 119 108 72 77 90 81 5 355 355 352 351 349 345 342 338 334 330 326 322 319 317 315 313 312 311 309 307 305 303 301 300 297 296 293 288 282 278 271 264 258 254 250 249 252 254 254 252 250 250 246 237 229 224 219 217 218 213 205
31 32 38 74 95 77 101 114 294 266 133 330 318 331 349 206 195 160 112 122 131 138 131 117 109 101 93 89 91 90 85 80 66 19 353 351 349 347 343 340 337 334 330 328 326 323 320 317 316 314 312 310 308 306 305 302 300 298 296 294 294 292 287 282 277 272 267 261 256 253 250 247 247 247 248 248 244 239 235 231 226 220 218 219 219 215
17 22 75 79 84 122 121 117 188 195 36 349 323 329 15 2 133 121 120 126 129 128 124 119 109 97 90 89 84 77 65 40 12 356 350 346 344 342 339 336 334 330 327 325 323 320 318 316 314 312 312 310 309 307 305 302 299 297 294 292 291 290 286 283 279 274 269 263 258 256 253 250 248 244 242 243 239 234 235 235 230 223 219 218 217 215
9 356 132 132 328 258 158 130 130 307 336 336 330 99 89 102 119 121 119 123 127 128 120 109 102 89 78 75 63 40 24 7 354 348 344 341 338 337 334 332 330 327 325 323 322 320 318 316 313 311 310 310 308 306 303 301 299 296 294 292 290 287 283 281 279 275 272 267 262 257 253 250 248 243 241 242 239 233 233 234 231 224 218 213 212 210
30 30 73 78 56 49 64 78 75 10 22 58 89 100 103 108 110 108 106 105 108 112 105 97 95 84 56 42 26 11 2 354 349 344 339 336 335 332 330 328 326 324 324 323 322 320 317 314 312 310 309 309 308 305 303 300 297 295 293 291 288 284 281 278 276 273 270 267 264 261 256 251 245 240 239 241 240 236 232 229 227 223 216 209 206 205
62 60 63 88 103 89 60 54 62 62 64 78 93 101 103 102 96 89 90 86 75 77 84 80 74 58 24 9 5 358 350 344 341 337 333 331 329 327 325 325 324 324 325 323 321 318 316 314 313 312 311 310 309 308 305 302 299 296 293 290 287 284 281 278 275 273 271 268 265 263 260 255 249 242 237 234 231 230 227 224 224 224 219 213 207 203
23 34 82 114 129 117 89 91 89 67 70 87 103 107 103 97 92 80 73 68 54 43 35 19 14 7 351 347 346 344 341 337 332 329 327 325 323 323 324 325 325 325 324 322 320 319 318 317 316 315 315 316 316 314 311 308 304 300 296 292 288 285 281 277 274 273 271 270 267 264 261 257 253 249 245 240 235 231 225 219 217 218 218 215 211 208
26 52 90 112 90 60 117 142 152 70 84 133 132 127 124 116 104 88 77 75 56 16 358 347 338 333 330 332 331 330 330 327 324 322 320 319 320 322 324 325 325 324 322 321 322 322 321 321 322 323 325 327 328 325 321 318 314 307 301 295 290 286 282 278 275 272 269 267 266 263 261 257 254 251 249 247 245 241 235 227 218 213 212 213 216 216
350 75 108 110 101 87 101 143 169 189 211 202 190 176 169 162 151 144 129 102 36 332 317 310 310 313 315 318 319 319 319 317 317 317 315 316 319 321 322 324 323 322 323 324 324 325 325 326 330 334 336 338 337 334 332 331 329 324 316 306 296 289 283 279 276 273 269 266 262 260 258 256 254 251 248 246 246 245 242 236 231 226 219 218 223 226
228 148 127 115 130 135 155 172 172 165 182 197 196 192 184 182 181 177 174 189 256 278 285 289 294 300 305 308 311 313 314 314 315 314 314 316 318 319 320 322 322 324 326 325 325 327 329 331 337 341 342 341 337 333 330 329 327 327 325 319 312 304 292 283 277 273 269 267 263 259 255 252 252 250 247 243 243 244 242 238 236 237 235 236 238 236
182 160 164 168 157 160 186 179 176 148 44 156 183 192 193 191 190 194 205 226 249 265 273 279 289 297 302 307 312 314 316 316 317 317 317 317 317 318 320 322 324 325 324 325 327 330 332 339 346 347 344 339 333 329 327 325 323 322 319 314 310 306 300 293 285 277 271 266 262 259 254 250 248 248 246 242 240 241 241 238 237 240 241 242 242 237